N5771J -KSGU

Flight info

Callsign N5771J
Flight time N/A
Altitude VFR
Route
Aircraft T210/L-DOV/C

Departure

Time N/A
Airport -

Arrival

Time 2026-05-05 03:09
Airport St George Regional Airport (KSGU)
Time Latitude Longitude Altitude Speed Heading
2026-05-05 02:03 35.11985 -116.38196 9358 ft 176 kts 52°
2026-05-05 02:03 35.12840 -116.37131 9357 ft 175 kts 52°
2026-05-05 02:03 35.13694 -116.36064 9353 ft 175 kts 53°
2026-05-05 02:04 35.14255 -116.35362 9349 ft 174 kts 51°
2026-05-05 02:04 35.15101 -116.34304 9349 ft 173 kts 55°
2026-05-05 02:04 35.15942 -116.33250 9363 ft 174 kts 55°
2026-05-05 02:04 35.16785 -116.32194 9365 ft 173 kts 51°
2026-05-05 02:05 35.17618 -116.31154 9434 ft 169 kts 53°
2026-05-05 02:05 35.18445 -116.30114 9438 ft 171 kts 53°
2026-05-05 02:05 35.19282 -116.29064 9428 ft 171 kts 53°
2026-05-05 02:05 35.20105 -116.28037 9443 ft 169 kts 52°
2026-05-05 02:06 35.20933 -116.26994 9436 ft 172 kts 53°
2026-05-05 02:06 35.21769 -116.25942 9430 ft 172 kts 52°
2026-05-05 02:06 35.22602 -116.24898 9433 ft 171 kts 52°
2026-05-05 02:06 35.23439 -116.23852 9438 ft 172 kts 51°
2026-05-05 02:07 35.24267 -116.22814 9441 ft 170 kts 52°
2026-05-05 02:07 35.25080 -116.21790 9444 ft 171 kts 52°
2026-05-05 02:07 35.25906 -116.20750 9440 ft 171 kts 52°
2026-05-05 02:07 35.26739 -116.19703 9445 ft 172 kts 52°
2026-05-05 02:08 35.27580 -116.18647 9433 ft 173 kts 53°
2026-05-05 02:08 35.28414 -116.17595 9438 ft 173 kts 50°
2026-05-05 02:08 35.29258 -116.16534 9433 ft 174 kts 52°
2026-05-05 02:08 35.30099 -116.15479 9436 ft 173 kts 52°
2026-05-05 02:09 35.30935 -116.14425 9439 ft 173 kts 51°
2026-05-05 02:09 35.31773 -116.13371 9443 ft 173 kts 52°
2026-05-05 02:09 35.32614 -116.12311 9439 ft 173 kts 52°
2026-05-05 02:09 35.33449 -116.11258 9441 ft 173 kts 51°
2026-05-05 02:10 35.34286 -116.10204 9436 ft 173 kts 52°
2026-05-05 02:10 35.35127 -116.09143 9438 ft 174 kts 52°
2026-05-05 02:10 35.35969 -116.08081 9440 ft 174 kts 51°
2026-05-05 02:10 35.36811 -116.07019 9441 ft 174 kts 52°
2026-05-05 02:11 35.37655 -116.05952 9446 ft 174 kts 52°
2026-05-05 02:11 35.38490 -116.04899 9448 ft 174 kts 52°
2026-05-05 02:11 35.39337 -116.03830 9448 ft 175 kts 52°
2026-05-05 02:11 35.40184 -116.02759 9451 ft 175 kts 51°
2026-05-05 02:12 35.41029 -116.01691 9438 ft 173 kts 52°
2026-05-05 02:12 35.42699 -115.99581 9442 ft 172 kts 51°
2026-05-05 02:12 35.43531 -115.98528 9442 ft 172 kts 51°
2026-05-05 02:13 35.44366 -115.97471 9443 ft 172 kts 52°
2026-05-05 02:13 35.45202 -115.96413 9450 ft 172 kts 51°
2026-05-05 02:13 35.46035 -115.95358 9451 ft 172 kts 52°
2026-05-05 02:13 35.46870 -115.94297 9444 ft 173 kts 49°
2026-05-05 02:14 35.47703 -115.93244 9451 ft 174 kts 49°
2026-05-05 02:14 35.48545 -115.92179 9444 ft 174 kts 50°
2026-05-05 02:14 35.49392 -115.91105 9447 ft 175 kts 49°
2026-05-05 02:14 35.50240 -115.90029 9448 ft 175 kts 49°
2026-05-05 02:15 35.51086 -115.88957 9444 ft 176 kts 50°
2026-05-05 02:15 35.51943 -115.87868 9456 ft 178 kts 49°
2026-05-05 02:15 35.52801 -115.86779 9459 ft 177 kts 50°
2026-05-05 02:15 35.53659 -115.85690 9461 ft 177 kts 49°
2026-05-05 02:16 35.54516 -115.84601 9465 ft 177 kts 49°
2026-05-05 02:16 35.55372 -115.83514 9466 ft 177 kts 49°
2026-05-05 02:16 35.56218 -115.82439 9464 ft 178 kts 49°
2026-05-05 02:16 35.57076 -115.81347 9465 ft 177 kts 49°
2026-05-05 02:17 35.57934 -115.80256 9464 ft 178 kts 49°
2026-05-05 02:17 35.58792 -115.79163 9453 ft 176 kts 49°
2026-05-05 02:17 35.59645 -115.78079 9456 ft 176 kts 49°
2026-05-05 02:17 35.60495 -115.76996 9454 ft 177 kts 49°
2026-05-05 02:18 35.61351 -115.75906 9462 ft 178 kts 49°
2026-05-05 02:18 35.62208 -115.74814 9467 ft 178 kts 50°
2026-05-05 02:18 35.63068 -115.73718 9466 ft 179 kts 50°
2026-05-05 02:18 35.63931 -115.72617 9471 ft 179 kts 49°
2026-05-05 02:19 35.64798 -115.71512 9471 ft 178 kts 49°
2026-05-05 02:19 35.65661 -115.70410 9470 ft 179 kts 49°
2026-05-05 02:19 35.66516 -115.69320 9470 ft 179 kts 49°
2026-05-05 02:19 35.67383 -115.68214 9461 ft 179 kts 50°
2026-05-05 02:20 35.68243 -115.67119 9463 ft 177 kts 50°
2026-05-05 02:20 35.69091 -115.66037 9458 ft 174 kts 50°
2026-05-05 02:20 35.69932 -115.64958 9457 ft 176 kts 50°
2026-05-05 02:20 35.70777 -115.63874 9457 ft 175 kts 50°
2026-05-05 02:21 35.71620 -115.62798 9461 ft 175 kts 50°
2026-05-05 02:21 35.72463 -115.61722 9461 ft 174 kts 50°
2026-05-05 02:21 35.73302 -115.60649 9463 ft 174 kts 50°
2026-05-05 02:21 35.74138 -115.59578 9464 ft 173 kts 49°
2026-05-05 02:22 35.74975 -115.58506 9465 ft 174 kts 50°
2026-05-05 02:22 35.75802 -115.57447 9466 ft 174 kts 50°
2026-05-05 02:22 35.76640 -115.56373 9467 ft 174 kts 50°
2026-05-05 02:22 35.77482 -115.55294 9463 ft 175 kts 50°
2026-05-05 02:23 35.78321 -115.54219 9462 ft 173 kts 49°
2026-05-05 02:23 35.79152 -115.53154 9465 ft 173 kts 50°
2026-05-05 02:23 35.79989 -115.52080 9464 ft 174 kts 50°
2026-05-05 02:23 35.80829 -115.51002 9459 ft 173 kts 50°
2026-05-05 02:24 35.81655 -115.49942 9528 ft 168 kts 50°
2026-05-05 02:24 35.82466 -115.48900 9547 ft 170 kts 50°
2026-05-05 02:24 35.83284 -115.47850 9550 ft 170 kts 50°
2026-05-05 02:24 35.84110 -115.46788 9541 ft 173 kts 50°
2026-05-05 02:25 35.84950 -115.45707 9544 ft 175 kts 49°
2026-05-05 02:25 35.85787 -115.44631 9558 ft 176 kts 49°
2026-05-05 02:25 35.86653 -115.43520 9561 ft 179 kts 49°
2026-05-05 02:25 35.87504 -115.42424 9562 ft 180 kts 49°
2026-05-05 02:26 35.88372 -115.41307 9563 ft 179 kts 49°
2026-05-05 02:26 35.89237 -115.40193 9548 ft 181 kts 50°
2026-05-05 02:26 35.90100 -115.39078 9535 ft 179 kts 49°
2026-05-05 02:26 35.90944 -115.37997 9532 ft 174 kts 49°
2026-05-05 02:27 35.91778 -115.36922 9538 ft 174 kts 50°
2026-05-05 02:27 35.92620 -115.35834 9545 ft 176 kts 49°
2026-05-05 02:27 35.93471 -115.34737 9540 ft 178 kts 50°
2026-05-05 02:27 35.94328 -115.33632 9550 ft 179 kts 49°
2026-05-05 02:28 35.95178 -115.32536 9545 ft 178 kts 50°
2026-05-05 02:28 35.96030 -115.31436 9550 ft 177 kts 51°
2026-05-05 02:28 35.96877 -115.30341 9544 ft 177 kts 50°
2026-05-05 02:28 35.97725 -115.29247 9538 ft 176 kts 50°
2026-05-05 02:29 35.98569 -115.28155 9536 ft 176 kts 51°
2026-05-05 02:29 35.99414 -115.27063 9535 ft 175 kts 50°
2026-05-05 02:29 36.00256 -115.25975 9533 ft 175 kts 51°
2026-05-05 02:29 36.01100 -115.24883 9531 ft 176 kts 51°
2026-05-05 02:30 36.01946 -115.23788 9528 ft 176 kts 50°
2026-05-05 02:30 36.02790 -115.22696 9502 ft 176 kts 50°
2026-05-05 02:30 36.03637 -115.21600 9499 ft 176 kts 51°
2026-05-05 02:30 36.04477 -115.20511 9499 ft 175 kts 51°
2026-05-05 02:31 36.05319 -115.19421 9503 ft 175 kts 51°
2026-05-05 02:31 36.06160 -115.18331 9504 ft 175 kts 51°
2026-05-05 02:31 36.06997 -115.17246 9494 ft 174 kts 51°
2026-05-05 02:31 36.07831 -115.16165 9505 ft 174 kts 51°
2026-05-05 02:32 36.08669 -115.15090 9507 ft 174 kts 50°
2026-05-05 02:32 36.09519 -115.14025 9507 ft 174 kts 50°
2026-05-05 02:32 36.10356 -115.12970 9505 ft 175 kts 50°
2026-05-05 02:32 36.11207 -115.11895 9507 ft 174 kts 50°
2026-05-05 02:33 36.12057 -115.10820 9507 ft 175 kts 50°
2026-05-05 02:33 36.12909 -115.09743 9506 ft 174 kts 50°
2026-05-05 02:33 36.13757 -115.08670 9508 ft 174 kts 51°
2026-05-05 02:33 36.14604 -115.07598 9509 ft 175 kts 50°
2026-05-05 02:34 36.15456 -115.06520 9443 ft 175 kts 50°
2026-05-05 02:34 36.16304 -115.05446 9447 ft 174 kts 50°
2026-05-05 02:34 36.17154 -115.04370 9447 ft 175 kts 50°
2026-05-05 02:34 36.18003 -115.03293 9449 ft 175 kts 49°
2026-05-05 02:35 36.18858 -115.02210 9447 ft 176 kts 49°
2026-05-05 02:35 36.19711 -115.01128 9439 ft 176 kts 50°
2026-05-05 02:35 36.20563 -115.00046 9436 ft 176 kts 50°
2026-05-05 02:35 36.21403 -114.98980 9437 ft 175 kts 50°
2026-05-05 02:36 36.22256 -114.97897 9439 ft 177 kts 50°
2026-05-05 02:36 36.23116 -114.96808 9435 ft 176 kts 50°
2026-05-05 02:36 36.23956 -114.95750 9439 ft 171 kts 51°
2026-05-05 02:36 36.24787 -114.94686 9433 ft 172 kts 51°
2026-05-05 02:37 36.25620 -114.93624 9437 ft 172 kts 51°
2026-05-05 02:37 36.26459 -114.92558 9436 ft 173 kts 51°
2026-05-05 02:37 36.27303 -114.91486 9437 ft 174 kts 51°
2026-05-05 02:37 36.28150 -114.90409 9438 ft 174 kts 50°
2026-05-05 02:38 36.28995 -114.89334 9436 ft 174 kts 51°
2026-05-05 02:38 36.29841 -114.88255 9434 ft 174 kts 50°
2026-05-05 02:38 36.30676 -114.87193 9432 ft 174 kts 50°
2026-05-05 02:38 36.31521 -114.86117 9431 ft 174 kts 51°
2026-05-05 02:39 36.32363 -114.85043 9433 ft 174 kts 50°
2026-05-05 02:39 36.33209 -114.83966 9427 ft 174 kts 51°
2026-05-05 02:39 36.34051 -114.82892 9428 ft 174 kts 51°
2026-05-05 02:39 36.34895 -114.81815 9423 ft 173 kts 51°
2026-05-05 02:40 36.35737 -114.80741 9423 ft 174 kts 51°
2026-05-05 02:40 36.36558 -114.79692 9419 ft 173 kts 51°
2026-05-05 02:40 36.37399 -114.78619 9416 ft 174 kts 51°
2026-05-05 02:40 36.38241 -114.77544 9416 ft 174 kts 51°
2026-05-05 02:41 36.39080 -114.76472 9410 ft 173 kts 51°
2026-05-05 02:41 36.39919 -114.75400 9407 ft 173 kts 51°
2026-05-05 02:41 36.40750 -114.74337 9405 ft 174 kts 51°
2026-05-05 02:41 36.41592 -114.73260 9404 ft 174 kts 51°
2026-05-05 02:42 36.42433 -114.72184 9404 ft 174 kts 51°
2026-05-05 02:42 36.43276 -114.71106 9403 ft 174 kts 50°
2026-05-05 02:42 36.44116 -114.70031 9402 ft 174 kts 51°
2026-05-05 02:42 36.44962 -114.68946 9398 ft 175 kts 51°
2026-05-05 02:43 36.45807 -114.67865 9396 ft 174 kts 51°
2026-05-05 02:43 36.46651 -114.66783 9398 ft 174 kts 51°
2026-05-05 02:43 36.47497 -114.65702 9388 ft 175 kts 48°
2026-05-05 02:43 36.48349 -114.64607 9383 ft 176 kts 49°
2026-05-05 02:44 36.49202 -114.63511 9389 ft 177 kts 49°
2026-05-05 02:44 36.50059 -114.62409 9390 ft 178 kts 49°
2026-05-05 02:44 36.50917 -114.61314 9387 ft 175 kts 49°
2026-05-05 02:44 36.51752 -114.60238 9389 ft 176 kts 49°
2026-05-05 02:45 36.52607 -114.59140 9379 ft 177 kts 49°
2026-05-05 02:45 36.53462 -114.58044 9380 ft 176 kts 48°
2026-05-05 02:45 36.54312 -114.56949 9370 ft 175 kts 49°
2026-05-05 02:45 36.55157 -114.55861 9387 ft 175 kts 48°
2026-05-05 02:46 36.56010 -114.54765 9391 ft 176 kts 48°
2026-05-05 02:46 36.56858 -114.53673 9382 ft 176 kts 49°
2026-05-05 02:46 36.57709 -114.52577 9388 ft 176 kts 49°
2026-05-05 02:46 36.58559 -114.51487 9389 ft 176 kts 48°
2026-05-05 02:47 36.59400 -114.50403 9387 ft 177 kts 49°
2026-05-05 02:47 36.60252 -114.49305 9388 ft 176 kts 49°
2026-05-05 02:47 36.61104 -114.48206 9389 ft 177 kts 49°
2026-05-05 02:47 36.61961 -114.47102 9388 ft 178 kts 49°
2026-05-05 02:48 36.62821 -114.45993 9393 ft 178 kts 49°
2026-05-05 02:48 36.63681 -114.44884 9392 ft 178 kts 48°
2026-05-05 02:48 36.64541 -114.43773 9397 ft 179 kts 49°
2026-05-05 02:48 36.65407 -114.42655 9389 ft 178 kts 49°
2026-05-05 02:49 36.66270 -114.41541 9385 ft 179 kts 49°
2026-05-05 02:49 36.67136 -114.40423 9387 ft 179 kts 49°
2026-05-05 02:49 36.67997 -114.39310 9387 ft 179 kts 49°
2026-05-05 02:49 36.68861 -114.38194 9388 ft 177 kts 50°
2026-05-05 02:50 36.69705 -114.37102 9387 ft 176 kts 50°
2026-05-05 02:50 36.70554 -114.36003 9386 ft 176 kts 51°
2026-05-05 02:50 36.71402 -114.34905 9387 ft 175 kts 51°
2026-05-05 02:50 36.72247 -114.33812 9381 ft 175 kts 51°
2026-05-05 02:51 36.73092 -114.32717 9385 ft 175 kts 50°
2026-05-05 02:51 36.73936 -114.31624 9382 ft 175 kts 50°
2026-05-05 02:51 36.74779 -114.30531 9383 ft 175 kts 51°
2026-05-05 02:51 36.75341 -114.29803 9385 ft 175 kts 50°
2026-05-05 02:52 36.76185 -114.28709 9380 ft 175 kts 50°
2026-05-05 02:52 36.76983 -114.27576 9369 ft 170 kts 65°
2026-05-05 02:52 36.77456 -114.26264 9385 ft 166 kts 74°
2026-05-05 02:52 36.77916 -114.24936 9395 ft 167 kts 73°
2026-05-05 02:53 36.78387 -114.23601 9399 ft 168 kts 73°
2026-05-05 02:53 36.78857 -114.22269 9403 ft 168 kts 73°
2026-05-05 02:53 36.79332 -114.20917 9323 ft 175 kts 73°
2026-05-05 02:53 36.79822 -114.19519 9195 ft 176 kts 71°
2026-05-05 02:54 36.80315 -114.18120 9070 ft 176 kts 71°
2026-05-05 02:54 36.80809 -114.16716 8941 ft 177 kts 72°
2026-05-05 02:54 36.81304 -114.15306 8818 ft 177 kts 72°
2026-05-05 02:54 36.81799 -114.13897 8694 ft 177 kts 71°
2026-05-05 02:55 36.82293 -114.12493 8574 ft 176 kts 72°
2026-05-05 02:55 36.82784 -114.11090 8450 ft 177 kts 72°
2026-05-05 02:55 36.83270 -114.09706 8324 ft 175 kts 71°
2026-05-05 02:55 36.83759 -114.08309 8199 ft 176 kts 72°
2026-05-05 02:56 36.84252 -114.06900 8072 ft 177 kts 72°
2026-05-05 02:56 36.84743 -114.05501 7946 ft 176 kts 72°
2026-05-05 02:56 36.85232 -114.04103 7823 ft 175 kts 72°
2026-05-05 02:56 36.85720 -114.02707 7695 ft 174 kts 72°
2026-05-05 02:57 36.86205 -114.01321 7569 ft 174 kts 72°
2026-05-05 02:57 36.86688 -113.99937 7458 ft 174 kts 72°
2026-05-05 02:57 36.87171 -113.98555 7332 ft 174 kts 72°
2026-05-05 02:57 36.87656 -113.97166 7211 ft 174 kts 72°
2026-05-05 02:58 36.88139 -113.95782 7095 ft 174 kts 72°
2026-05-05 02:58 36.88622 -113.94398 6972 ft 173 kts 72°
2026-05-05 02:58 36.89105 -113.93015 6845 ft 173 kts 72°
2026-05-05 02:58 36.89584 -113.91639 6736 ft 173 kts 72°
2026-05-05 02:59 36.90065 -113.90258 6616 ft 173 kts 72°
2026-05-05 02:59 36.90546 -113.88877 6501 ft 173 kts 72°
2026-05-05 02:59 36.91026 -113.87497 6393 ft 173 kts 72°
2026-05-05 02:59 36.91499 -113.86138 6280 ft 173 kts 71°
2026-05-05 03:00 36.91976 -113.84762 6175 ft 172 kts 72°
2026-05-05 03:00 36.92456 -113.83380 6027 ft 171 kts 76°
2026-05-05 03:00 36.92927 -113.82030 5952 ft 165 kts 71°
2026-05-05 03:00 36.93382 -113.80729 5935 ft 163 kts 72°
2026-05-05 03:01 36.93808 -113.79474 5959 ft 156 kts 72°
2026-05-05 03:01 36.94250 -113.78219 5981 ft 160 kts 72°
2026-05-05 03:01 36.94699 -113.76922 5975 ft 165 kts 72°
2026-05-05 03:01 36.95160 -113.75593 5886 ft 166 kts 71°
2026-05-05 03:02 36.95621 -113.74264 5777 ft 168 kts 70°
2026-05-05 03:02 36.96086 -113.72922 5660 ft 167 kts 70°
2026-05-05 03:02 36.96544 -113.71603 5534 ft 161 kts 67°
2026-05-05 03:02 36.96984 -113.70335 5406 ft 157 kts 69°
2026-05-05 03:03 36.97414 -113.69096 5280 ft 158 kts 71°
2026-05-05 03:03 36.97850 -113.67822 5166 ft 160 kts 69°
2026-05-05 03:03 36.98293 -113.66537 5050 ft 160 kts 70°
2026-05-05 03:03 36.98613 -113.65221 4918 ft 157 kts 81°
2026-05-05 03:04 36.98843 -113.63894 4801 ft 155 kts 82°
2026-05-05 03:04 36.99077 -113.62573 4677 ft 156 kts 82°
2026-05-05 03:04 36.99321 -113.61255 4557 ft 155 kts 81°
2026-05-05 03:04 36.99564 -113.59952 4431 ft 153 kts 82°
2026-05-05 03:05 36.99811 -113.58653 4311 ft 154 kts 82°
2026-05-05 03:05 37.00049 -113.57350 4194 ft 153 kts 82°
2026-05-05 03:05 37.00282 -113.56046 4067 ft 153 kts 81°
2026-05-05 03:05 37.00535 -113.54758 3959 ft 152 kts 79°
2026-05-05 03:06 37.00777 -113.53491 3920 ft 147 kts 80°
2026-05-05 03:06 37.00992 -113.52254 3916 ft 146 kts 82°
2026-05-05 03:06 37.01216 -113.51014 3914 ft 147 kts 81°
2026-05-05 03:06 37.01600 -113.49831 3886 ft 153 kts 46°
2026-05-05 03:07 37.02562 -113.49407 3916 ft 147 kts 359°
2026-05-05 03:07 37.03544 -113.49257 3911 ft 144 kts 14°
2026-05-05 03:07 37.04489 -113.48845 3891 ft 141 kts 21°
2026-05-05 03:07 37.05389 -113.48469 3776 ft 131 kts 16°
2026-05-05 03:08 37.06257 -113.48321 3602 ft 125 kts 338°
2026-05-05 03:08 37.06706 -113.49113 3291 ft 109 kts 259°
2026-05-05 03:08 37.06251 -113.49637 3238 ft 86 kts 208°
2026-05-05 03:08 37.05755 -113.49899 3090 ft 69 kts 207°
2026-05-05 03:09 37.05336 -113.50146 3038 ft 67 kts 203°
2026-05-05 03:09 37.04887 -113.50374 2967 ft 72 kts 204°
2026-05-05 03:09 37.04428 -113.50617 2890 ft 67 kts 202°
2026-05-05 03:09 37.04147 -113.50762 2877 ft 15 kts 201°
2026-05-05 03:10 37.04059 -113.50808 2875 ft 14 kts 203°
2026-05-05 03:10 37.03963 -113.50860 2874 ft 16 kts 204°
2026-05-05 03:10 37.03852 -113.50919 2871 ft 18 kts 203°
2026-05-05 03:10 37.03740 -113.50976 2868 ft 17 kts 203°
2026-05-05 03:11 37.03636 -113.51033 2866 ft 17 kts 203°
2026-05-05 03:11 37.03526 -113.51094 2862 ft 17 kts 201°
2026-05-05 03:11 37.03420 -113.51147 2860 ft 15 kts 202°
2026-05-05 03:11 37.03325 -113.51197 2859 ft 14 kts 203°
2026-05-05 03:12 37.03233 -113.51246 2856 ft 14 kts 202°
2026-05-05 03:12 37.03154 -113.51227 2855 ft 13 kts 122°
2026-05-05 03:12 37.03120 -113.51128 2855 ft 11 kts 112°
2026-05-05 03:12 37.03145 -113.51071 2856 ft 8 kts 18°
2026-05-05 03:13 37.03196 -113.51042 2854 ft 8 kts 22°
2026-05-05 03:13 37.03241 -113.51018 2858 ft 7 kts 25°
2026-05-05 03:13 37.03285 -113.50995 2859 ft 7 kts 19°
2026-05-05 03:13 37.03333 -113.50970 2860 ft 8 kts 23°
2026-05-05 03:14 37.03387 -113.50942 2858 ft 9 kts 20°
2026-05-05 03:14 37.03446 -113.50911 2862 ft 10 kts 22°
2026-05-05 03:14 37.03509 -113.50876 2864 ft 10 kts 21°
2026-05-05 03:14 37.03579 -113.50842 2865 ft 11 kts 21°
2026-05-05 03:15 37.03653 -113.50802 2867 ft 11 kts 23°
2026-05-05 03:15 37.03676 -113.50745 2868 ft 10 kts 113°
2026-05-05 03:15 37.03682 -113.50684 2868 ft 7 kts 16°
2026-05-05 03:15 37.03715 -113.50698 2869 ft 3 kts 289°
2026-05-05 03:16 37.03716 -113.50699 2869 ft 0 kts 290°